This demonstration page uses our WeatherBlox Daily Observations layout. Learn more.

Left ArrowRight Arrow

38.83388, -104.82136

Hourly Observations for March 23, 2021

Temp ( °F °C ) Dew Point ( °F °C ) Humidity (%) Winds ( mph kmh ) Pressure ( in mb ) Visibility ( mi km ) Precip ( " mm )
12:03 am 00:03 Cloudy with Haze 28 -2 23 -5 80 80 NNW 10 17 29.55 1001 7 11 0.00 0.00
12:58 am 00:58 Mostly Cloudy 29 -1.8 23 -5 79 79 NNW 8 13 29.54 1000 10 16 0.00 0.00
1:58 am 01:58 Mostly Cloudy 29 -1.7 24 -4.2 83 83 S 3 6 29.52 1000 10 16 0.00 0.00
2:58 am 02:58 Clear 29 -1.9 23 -4.9 80 80 NW 5 7 29.49 999 10 16 0.00 0.00
3:58 am 03:58 Clear 29 -1.8 23 -5.2 78 78 SSW 5 7 29.46 998 10 16 0.00 0.00
4:58 am 04:58 Clear 32 0.1 18 -7.9 55 55 NW 14 22 29.44 997 10 16 0.00 0.00
5:58 am 05:58 Clear 31 -0.3 15 -9.3 51 51 NW 17 28 29.44 997 10 16 0.00 0.00
6:58 am 06:58 Sunny 31 -0.4 15 -9.5 51 51 WNW 16 26 29.47 998 10 16 0.00 0.00
7:58 am 07:58 Sunny 32 0.2 15 -9.3 49 49 NW 16 26 29.48 998 10 16 0.00 0.00
8:58 am 08:58 Partly Cloudy 33 0.7 18 -7.8 53 53 NNW 9 15 29.51 999 10 16 0.00 0.00
9:58 am 09:58 Mostly Cloudy 33 0.4 22 -5.5 65 65 N 14 22 29.55 1001 10 16 0.00 0.00
10:20 am 10:20 Mostly Cloudy 34 1 21 -6 60 60 N 15 24 29.53 1000 10 16 0.00 0.00
10:40 am 10:40 Partly Cloudy 32 0 23 -5 69 69 N 16 26 29.55 1001 10 16 0.00 0.00
10:58 am 10:58 Partly Cloudy 33 0.4 22 -5.5 65 65 N 20 31 29.55 1001 10 16 0.00 0.00
11:18 am 11:18 Mostly Cloudy 34 1 21 -6 60 60 N 21 33 29.53 1000 10 16 0.00 0.00
11:33 am 11:33 Mostly Cloudy 34 1 21 -6 60 60 N 17 28 29.53 1000 10 16 0.00 0.00
11:38 am 11:38 Mostly Cloudy 34 1 21 -6 60 60 N 15 24 29.53 1000 10 16 0.00 0.00
11:43 am 11:43 Mostly Cloudy 34 1 21 -6 60 60 N 17 28 29.52 1000 10 16 0.00 0.00
11:58 am 11:58 Mostly Cloudy 34 1 21 -6.3 59 59 N 16 26 29.53 1000 10 16 0.00 0.00
12:58 pm 12:58 Mostly Cloudy 33 0.3 20 -6.8 59 59 N 12 19 29.54 1000 10 16 0.00 0.00
12:59 pm 12:59 Mostly Cloudy with Light Rain 34 1 19 -7 56 56 NNW 13 20 29.52 1000 10 16 0.00 0.00
1:15 pm 13:15 Mostly Cloudy 34 1 21 -6 60 60 N 9 15 29.52 1000 10 16 0.00 0.00
1:58 pm 13:58 Mostly Cloudy 33 0.5 21 -5.9 63 63 N 15 24 29.51 999 10 16 0.00 0.00
2:06 pm 14:06 Mostly Cloudy with Light Rain 34 1 21 -6 60 60 N 15 24 29.51 999 10 16 0.00 0.00
2:08 pm 14:08 Mostly Cloudy with Light Rain/Snow 32 0 21 -6 64 64 N 14 22 29.53 1000 10 16 0.00 0.00
2:09 pm 14:09 Mostly Cloudy with Light Rain 32 0 21 -6 64 64 NNW 14 22 29.53 1000 10 16 0.00 0.00
2:11 pm 14:11 Mostly Cloudy with Light Rain/Snow 32 0 21 -6 64 64 NNW 12 19 29.53 1000 10 16 0.00 0.00
2:31 pm 14:31 Mostly Cloudy with Light Showers 34 1 21 -6 60 60 N 14 22 29.51 999 10 16 0.00 0.00
2:45 pm 14:45 Mostly Cloudy 34 1 19 -7 56 56 N 13 20 29.51 999 10 16 0.00 0.00
2:58 pm 14:58 Mostly Cloudy 33 0.7 21 -6.2 60 60 N 14 22 29.51 999 10 16 0.00 0.00
3:03 pm 15:03 Mostly Cloudy 34 1 21 -6 60 60 N 16 26 29.51 999 10 16 0.00 0.00
3:43 pm 15:43 Mostly Cloudy 34 1 21 -6 60 60 N 20 31 29.51 999 10 16 0.00 0.00
3:58 pm 15:58 Mostly Cloudy 33 0.7 21 -6 61 61 N 17 28 29.51 999 10 16 0.00 0.00
4:13 pm 16:13 Mostly Cloudy 34 1 23 -5 65 65 N 15 24 29.52 1000 10 16 0.00 0.00
4:58 pm 16:58 Mostly Cloudy 33 0.3 23 -5.1 67 67 N 14 22 29.53 1000 10 16 0.00 0.00
5:58 pm 17:58 Mostly Cloudy 31 -0.8 22 -5.6 70 70 NNW 17 28 29.58 1002 10 16 0.00 0.00
5:59 pm 17:59 Mostly Cloudy with Light Showers 30 -1 21 -6 69 69 NNW 18 30 29.57 1001 10 16 0.00 0.00
6:00 pm 18:00 Mostly Cloudy with Light Snow 30 -1 21 -6 69 69 NNW 15 24 29.58 1002 10 16 0.00 0.00
6:01 pm 18:01 Mostly Cloudy with Light Rain 30 -1 23 -5 75 75 NNW 16 26 29.58 1002 10 16 0.00 0.00
6:03 pm 18:03 Mostly Cloudy with Light Snow 30 -1 23 -5 75 75 NNW 17 28 29.58 1002 10 16 0.00 0.00
6:15 pm 18:15 Mostly Cloudy 30 -1 23 -5 75 75 NNW 18 30 29.59 1002 10 16 0.00 0.00
6:46 pm 18:46 Mostly Cloudy with Light Snow Showers 30 -1 23 -5 75 75 NNW 15 24 29.87 1012 10 16 0.00 0.00
6:58 pm 18:58 Mostly Cloudy with Light Snow Showers 30 -1 23 -5 75 75 NW 17 28 29.88 1012 10 16 0.00 0.00
7:11 pm 19:11 Mostly Cloudy 30 -1 23 -5 75 75 NNW 17 28 29.61 1003 10 16 0.00 0.00
7:25 pm 19:25 Mostly Cloudy with Light Snow Showers 30 -1 23 -5 75 75 NNW 17 28 29.61 1003 10 16 0.00 0.00
7:58 pm 19:58 Mostly Cloudy with Light Snow Showers 30 -1.3 22 -5.5 73 73 N 17 28 29.62 1003 10 16 0.00 0.00
8:18 pm 20:18 Cloudy with Light Snow Showers 28 -2 25 -4 86 86 NNW 16 26 29.65 1004 3 4 0.00 0.00
8:48 pm 20:48 Windy with Snow Showers Likely 28 -2 25 -4 86 86 NW 22 35 29.65 1004 3 5 0.00 0.00
8:58 pm 20:58 Mostly Cloudy with Light Snow Showers 29 -1.7 23 -4.8 80 80 NNW 16 26 29.66 1005 10 16 0.00 0.00
9:08 pm 21:08 Windy with Snow Showers Likely 28 -2 23 -5 80 80 NNW 20 31 29.66 1005 10 16 0.00 0.00
9:09 pm 21:09 Mostly Cloudy 28 -2 23 -5 80 80 NNW 18 30 29.66 1005 10 16 0.00 0.00
9:58 pm 21:58 Mostly Cloudy 28 -2 21 -5.9 75 75 NNW 17 28 29.97 1015 10 16 0.00 0.00
10:10 pm 22:10 Mostly Cloudy with Light Snow 28 -2 21 -6 74 74 N 22 35 29.97 1015 10 16 0.00 0.00
10:30 pm 22:30 Mostly Cloudy with Light Snow 28 -2 21 -6 74 74 NNW 18 30 29.69 1006 10 16 0.00 0.00
10:58 pm 22:58 Mostly Cloudy with Light Snow Showers 27 -2.7 23 -4.9 85 85 NNW 17 28 29.69 1006 5 8 0.00 0.00
11:03 pm 23:03 Mostly Cloudy with Light Snow Showers 27 -3 23 -5 86 86 NNW 18 30 29.69 1006 4 6 0.00 0.00
11:13 pm 23:13 Mostly Cloudy with Light Snow Showers 27 -3 23 -5 86 86 NNW 18 30 29.69 1006 4 6 0.00 0.00
11:38 pm 23:38 Cloudy with Light Snow Showers 27 -3 23 -5 86 86 NW 15 24 29.70 1006 5 8 0.00 0.00
11:58 pm 23:58 Cloudy with Light Snow 28 -2.5 21 -6.1 77 77 NNW 14 22 29.69 1005 10 16 0.00 0.00

Powered by AerisWeather